Tracking 29892 objects as of 21-Nov-2024
HD Live streaming from Space Station
objects crossing your sky now

ARIANE 3 DEB

Track ARIANE 3 DEB now!
10-day predictions


NORAD ID: 20488
Int'l Code: 1988-063F
Perigee: 1,115.5 km
Apogee: 15,167.6 km
Inclination: 7.3 °
Period: 290.0 minutes
Semi major axis: 14512 km
RCS: 7.5119 m2 (large)
Launch date: July 21, 1988
Source: France (FR)
Launch site: FRENCH GUIANA (FRGUI)

Note: This is SATELLITE DEBRIS
Your satellite tracking list
Your tracking list is empty




NASA's NSSDC Master Catalog

Two Line Element Set (TLE):
1 20488U 88063F   24325.16802057 -.00000036  00000-0  00000-0 0  9992
2 20488   7.2780   9.8818 4841358  28.2418 351.2226  4.96577197627179
Source of the keplerian elements: AFSPC